Wainwright, AK

7:01 PM AKDT on April 19, 2018 (GMT -0800)
Wainwright

Weather History for PAWI - May, 2013

Change the Weather History Date:

Thursday, May 9, 2013

  Actual Average (PABR) Record (PABR)
Temperature  
Mean Temperature 32 °F -  
Max Temperature 33 °F 23 °F 36 °F (1968)
Min Temperature 30 °F 11 °F -12 °F (2001)
Degree Days  
Heating Degree Days 34    
Moisture  
Dew Point 27 °F    
Average Humidity 82    
Maximum Humidity 86    
Minimum Humidity 79    
Precipitation  
Precipitation 0.00 in - - ()
Sea Level Pressure  
Sea Level Pressure 30.12 in    
Wind  
Wind Speed 18 mph (SSW)    
Max Wind Speed 28 mph    
Max Gust Speed 34 mph    
Visibility 10 miles    
Events      
Averages and records for this station are not official NWS values.
T = Trace of Precipitation, MM = Missing Value Source: NWS Daily Summary

Daily Weather History Graph

Daily Weather History Graph

Search for Another Location

Airport or City:

Astronomy

May. 09, 2013 Rise Set
Actual Time 3:55 AM AKDT 1:26 AM AKDT
Civil Twilight Sun does not set Sun does not set
Nautical Twilight Sun does not set Sun does not set
Astronomical Twilight Sun does not set Sun does not set
Moon 4:33 AM AKDT (5/9) No Moon Set
Length of Visible Light 24h 00m
Length of Day
21h 31m
Waning Crescent, 0% of the Moon is Illuminated
May 9
Waning Crescent
May 9
New
May 17
First Quarter
May 24
Full
May 31
Last Quarter

Hourly Weather History & Observations

Time (AKDT) Temp. Windchill Dew Point Humidity Pressure Visibility Wind Dir Wind Speed Gust Speed Precip Events Conditions
12:53 AM 30.0 °F 21.1 °F 26.1 °F 85% 30.20 in 10.0 mi SSE 10.4 mph - N/A   Overcast
1:53 AM 30.0 °F 22.4 °F 26.1 °F 85% 30.19 in 10.0 mi South 8.1 mph - N/A   Overcast
2:53 AM 30.9 °F 21.2 °F 26.1 °F 82% 30.19 in 10.0 mi South 12.7 mph - N/A   Overcast
3:53 AM 30.9 °F 20.2 °F 25.0 °F 79% 30.17 in 10.0 mi South 15.0 mph - N/A   Overcast
4:53 AM 30.9 °F 18.7 °F 25.0 °F 79% 30.16 in 10.0 mi SSW 19.6 mph - N/A   Overcast
5:53 AM 30.9 °F 18.4 °F 26.1 °F 82% 30.14 in 10.0 mi South 20.7 mph - N/A   Overcast
6:15 AM 30.2 °F 17.4 °F 26.6 °F 86% 30.14 in 10.0 mi South 20.7 mph - N/A   Overcast
6:53 AM 30.9 °F 18.1 °F 26.1 °F 82% 30.13 in 10.0 mi South 21.9 mph - N/A   Overcast
7:22 AM 30.2 °F 17.1 °F 26.6 °F 86% 30.13 in 10.0 mi South 21.9 mph - N/A   Overcast
7:53 AM 30.9 °F 17.8 °F 26.1 °F 82% 30.12 in 10.0 mi South 23.0 mph - N/A   Overcast
8:53 AM 32.0 °F 20.1 °F 27.0 °F 82% 30.13 in 10.0 mi SSW 19.6 mph - N/A   Overcast
9:53 AM 33.1 °F 20.3 °F 28.0 °F 82% 30.12 in 10.0 mi SSW 24.2 mph - N/A   Overcast
10:42 AM 33.8 °F 21.0 °F 28.4 °F 81% 30.11 in 10.0 mi SSW 25.3 mph - N/A   Overcast
10:53 AM 33.1 °F 19.6 °F 28.0 °F 82% 30.12 in 9.0 mi SSW 27.6 mph - N/A   Overcast
11:53 AM 33.1 °F 20.1 °F 28.0 °F 82% 30.12 in 10.0 mi SSW 25.3 mph - N/A   Overcast
12:53 PM 33.1 °F 19.6 °F 28.0 °F 82% 30.11 in 10.0 mi SSW 27.6 mph 34.5 mph N/A   Overcast
1:53 PM 32.0 °F 18.9 °F 28.0 °F 85% 30.12 in 10.0 mi SSW 24.2 mph 32.2 mph N/A   Overcast
2:53 PM 32.0 °F 18.9 °F 27.0 °F 82% 30.12 in 10.0 mi SSW 24.2 mph 33.4 mph N/A   Overcast
3:53 PM 32.0 °F 18.6 °F 27.0 °F 82% 30.12 in 10.0 mi SW 25.3 mph - N/A   Overcast
4:53 PM 32.0 °F 18.9 °F 27.0 °F 82% 30.11 in 10.0 mi SW 24.2 mph 31.1 mph N/A   Overcast
5:53 PM 32.0 °F 18.4 °F 27.0 °F 82% 30.10 in 10.0 mi SW 26.5 mph 33.4 mph N/A   Overcast
6:53 PM 32.0 °F 19.8 °F 27.0 °F 82% 30.11 in 10.0 mi SW 20.7 mph - N/A   Overcast
7:53 PM 32.0 °F 19.2 °F 27.0 °F 82% 30.10 in 10.0 mi SW 23.0 mph - N/A   Overcast
9:03 PM 32.0 °F 20.1 °F 26.6 °F 80% 30.09 in 9.0 mi SW 19.6 mph - N/A   Overcast
9:53 PM 32.0 °F 19.8 °F 27.0 °F 82% 30.09 in 10.0 mi SW 20.7 mph - N/A   Overcast
10:44 PM 32.0 °F 20.5 °F 26.6 °F 80% 30.09 in 10.0 mi SW 18.4 mph - N/A   Overcast
10:53 PM 32.0 °F 20.8 °F 27.0 °F 82% 30.10 in 10.0 mi SW 17.3 mph - N/A   Overcast
11:13 PM 32.0 °F 20.1 °F 26.6 °F 80% 30.09 in 10.0 mi SW 19.6 mph - N/A   Overcast
11:22 PM 32.0 °F 19.8 °F 26.6 °F 80% 30.08 in 10.0 mi SW 20.7 mph 25.3 mph N/A   Overcast
11:53 PM 32.0 °F 20.5 °F 27.0 °F 82% 30.09 in 10.0 mi SW 18.4 mph - N/A   Overcast